Year,Month,Day,Hour,Minute,Value (Times are PST for temperature in C)
2023,04,27,00,00,8.40
2023,04,27,00,01,8.40
2023,04,27,00,02,8.40
2023,04,27,00,03,8.30
2023,04,27,00,04,8.30
2023,04,27,00,05,8.30
2023,04,27,00,06,8.30
2023,04,27,00,07,8.20
2023,04,27,00,08,8.20
2023,04,27,00,09,8.20
2023,04,27,00,10,8.20
2023,04,27,00,11,8.20
2023,04,27,00,12,8.10
2023,04,27,00,13,8.10
2023,04,27,00,14,8.10
2023,04,27,00,15,8.10
2023,04,27,00,16,8.00
2023,04,27,00,17,8.00
2023,04,27,00,18,8.00
2023,04,27,00,19,7.90
2023,04,27,00,20,7.90
2023,04,27,00,21,7.90
2023,04,27,00,22,7.90
2023,04,27,00,23,7.80
2023,04,27,00,24,7.80
2023,04,27,00,25,7.80
2023,04,27,00,26,7.80
2023,04,27,00,27,7.80
2023,04,27,00,28,7.70
2023,04,27,00,29,7.70
2023,04,27,00,30,7.70
2023,04,27,00,31,7.70
2023,04,27,00,32,7.70
2023,04,27,00,33,7.70
2023,04,27,00,34,7.60
2023,04,27,00,35,7.60
2023,04,27,00,36,7.60
2023,04,27,00,37,7.60
2023,04,27,00,38,7.60
2023,04,27,00,39,7.50
2023,04,27,00,40,7.50
2023,04,27,00,41,7.50
2023,04,27,00,42,7.50
2023,04,27,00,43,7.50
2023,04,27,00,44,7.50
2023,04,27,00,45,7.50
2023,04,27,00,46,7.40
2023,04,27,00,47,7.40
2023,04,27,00,48,7.40
2023,04,27,00,49,7.40
2023,04,27,00,50,7.40
2023,04,27,00,51,7.40
2023,04,27,00,52,7.40
2023,04,27,00,53,7.30
2023,04,27,00,54,7.30
2023,04,27,00,55,7.30
2023,04,27,00,56,7.30
2023,04,27,00,57,7.30
2023,04,27,00,58,7.30
2023,04,27,00,59,7.20
2023,04,27,01,00,7.20
2023,04,27,01,01,7.20
2023,04,27,01,02,7.20
2023,04,27,01,03,7.20
2023,04,27,01,04,7.20
2023,04,27,01,05,7.10
2023,04,27,01,06,7.10
2023,04,27,01,07,7.10
2023,04,27,01,08,7.10
2023,04,27,01,09,7.10
2023,04,27,01,10,7.10
2023,04,27,01,11,7.10
2023,04,27,01,12,7.00
2023,04,27,01,13,7.00
2023,04,27,01,14,7.00
2023,04,27,01,15,7.00
2023,04,27,01,16,6.90
2023,04,27,01,17,6.90
2023,04,27,01,18,6.90
2023,04,27,01,19,6.90
2023,04,27,01,20,6.80
2023,04,27,01,21,6.80
2023,04,27,01,22,6.80
2023,04,27,01,23,6.80
2023,04,27,01,24,6.80
2023,04,27,01,25,6.80
2023,04,27,01,26,6.80
2023,04,27,01,27,6.80
2023,04,27,01,28,6.80
2023,04,27,01,29,6.70
2023,04,27,01,30,6.80
2023,04,27,01,31,6.70
2023,04,27,01,32,6.70
2023,04,27,01,33,6.70
2023,04,27,01,34,6.70
2023,04,27,01,35,6.70
2023,04,27,01,36,6.70
2023,04,27,01,37,6.70
2023,04,27,01,38,6.60
2023,04,27,01,39,6.60
2023,04,27,01,40,6.60
2023,04,27,01,41,6.60
2023,04,27,01,42,6.60
2023,04,27,01,43,6.60
2023,04,27,01,44,6.60
2023,04,27,01,45,6.50
2023,04,27,01,46,6.50
2023,04,27,01,47,6.50
2023,04,27,01,48,6.50
2023,04,27,01,49,6.50
2023,04,27,01,50,6.50
2023,04,27,01,51,6.60
2023,04,27,01,52,6.60
2023,04,27,01,53,6.60
2023,04,27,01,54,6.70
2023,04,27,01,55,6.70
2023,04,27,01,56,6.70
2023,04,27,01,57,6.70
2023,04,27,01,58,6.80
2023,04,27,01,59,6.80
2023,04,27,02,00,6.80
2023,04,27,02,01,6.80
2023,04,27,02,02,6.80
2023,04,27,02,03,6.80
2023,04,27,02,04,6.80
2023,04,27,02,05,6.80
2023,04,27,02,06,6.80
2023,04,27,02,07,6.80
2023,04,27,02,08,6.80
2023,04,27,02,09,6.80
2023,04,27,02,10,6.80
2023,04,27,02,11,6.80
2023,04,27,02,12,6.80
2023,04,27,02,13,6.80
2023,04,27,02,14,6.80
2023,04,27,02,15,6.80
2023,04,27,02,16,6.80
2023,04,27,02,17,6.70
2023,04,27,02,18,6.70
2023,04,27,02,19,6.70
2023,04,27,02,20,6.70
2023,04,27,02,21,6.70
2023,04,27,02,22,6.70
2023,04,27,02,23,6.70
2023,04,27,02,24,6.70
2023,04,27,02,25,6.70
2023,04,27,02,26,6.70
2023,04,27,02,27,6.70
2023,04,27,02,28,6.70
2023,04,27,02,29,6.80
2023,04,27,02,30,6.80
2023,04,27,02,31,6.80
2023,04,27,02,32,6.80
2023,04,27,02,33,6.90
2023,04,27,02,34,6.90
2023,04,27,02,35,6.90
2023,04,27,02,36,6.90
2023,04,27,02,37,6.90
2023,04,27,02,38,6.90
2023,04,27,02,39,6.90
2023,04,27,02,40,6.90
2023,04,27,02,41,7.00
2023,04,27,02,42,7.00
2023,04,27,02,43,7.00
2023,04,27,02,44,7.00
2023,04,27,02,45,7.00
2023,04,27,02,46,7.00
2023,04,27,02,47,7.00
2023,04,27,02,48,7.00
2023,04,27,02,49,7.00
2023,04,27,02,50,7.00
2023,04,27,02,51,7.00
2023,04,27,02,52,6.90
2023,04,27,02,53,6.90
2023,04,27,02,54,6.90
2023,04,27,02,55,6.90
2023,04,27,02,56,6.90
2023,04,27,02,57,6.90
2023,04,27,02,58,6.80
2023,04,27,02,59,6.80
2023,04,27,03,00,6.80
2023,04,27,03,01,6.80
2023,04,27,03,02,6.80
2023,04,27,03,03,6.70
2023,04,27,03,04,6.70
2023,04,27,03,05,6.70
2023,04,27,03,06,6.70
2023,04,27,03,07,6.70
2023,04,27,03,08,6.60
2023,04,27,03,09,6.60
2023,04,27,03,10,6.60
2023,04,27,03,11,6.50
2023,04,27,03,12,6.50
2023,04,27,03,13,6.50
2023,04,27,03,14,6.40
2023,04,27,03,15,6.40
2023,04,27,03,16,6.40
2023,04,27,03,17,6.40
2023,04,27,03,18,6.40
2023,04,27,03,19,6.40
2023,04,27,03,20,6.30
2023,04,27,03,21,6.30
2023,04,27,03,22,6.30
2023,04,27,03,23,6.30
2023,04,27,03,24,6.30
2023,04,27,03,25,6.20
2023,04,27,03,26,6.20
2023,04,27,03,27,6.20
2023,04,27,03,28,6.20
2023,04,27,03,29,6.20
2023,04,27,03,30,6.10
2023,04,27,03,31,6.10
2023,04,27,03,32,6.10
2023,04,27,03,33,6.10
2023,04,27,03,34,6.10
2023,04,27,03,35,6.00
2023,04,27,03,36,6.00
2023,04,27,03,37,6.00
2023,04,27,03,38,6.00
2023,04,27,03,39,5.90
2023,04,27,03,40,5.90
2023,04,27,03,41,5.90
2023,04,27,03,42,5.90
2023,04,27,03,43,5.90
2023,04,27,03,44,5.90
2023,04,27,03,45,5.90
2023,04,27,03,46,5.90
2023,04,27,03,47,5.80
2023,04,27,03,48,5.80
2023,04,27,03,49,5.80
2023,04,27,03,50,5.80
2023,04,27,03,51,5.80
2023,04,27,03,52,5.80
2023,04,27,03,53,5.80
2023,04,27,03,54,5.80
2023,04,27,03,55,5.80
2023,04,27,03,56,5.80
2023,04,27,03,57,5.70
2023,04,27,03,58,5.70
2023,04,27,03,59,5.70
2023,04,27,04,00,5.70
2023,04,27,04,01,5.60
2023,04,27,04,02,5.60
2023,04,27,04,03,5.60
2023,04,27,04,04,5.60
2023,04,27,04,05,5.60
2023,04,27,04,06,5.60
2023,04,27,04,07,5.60
2023,04,27,04,08,5.60
2023,04,27,04,09,5.50
2023,04,27,04,10,5.50
2023,04,27,04,11,5.50
2023,04,27,04,12,5.50
2023,04,27,04,13,5.50
2023,04,27,04,14,5.40
2023,04,27,04,15,5.40
2023,04,27,04,16,5.40
2023,04,27,04,17,5.40
2023,04,27,04,18,5.40
2023,04,27,04,19,5.30
2023,04,27,04,20,5.30
2023,04,27,04,21,5.30
2023,04,27,04,22,5.30
2023,04,27,04,23,5.30
2023,04,27,04,24,5.30
2023,04,27,04,25,5.30
2023,04,27,04,26,5.30
2023,04,27,04,27,5.30
2023,04,27,04,28,5.30
2023,04,27,04,29,5.30
2023,04,27,04,30,5.20
2023,04,27,04,31,5.20
2023,04,27,04,32,5.20
2023,04,27,04,33,5.20
2023,04,27,04,34,5.20
2023,04,27,04,35,5.20
2023,04,27,04,36,5.20
2023,04,27,04,37,5.20
2023,04,27,04,38,5.20
2023,04,27,04,39,5.20
2023,04,27,04,40,5.20
2023,04,27,04,41,5.20
2023,04,27,04,42,5.20
2023,04,27,04,43,5.20
2023,04,27,04,44,5.20
2023,04,27,04,45,5.10
2023,04,27,04,46,5.10
2023,04,27,04,47,5.10
2023,04,27,04,48,5.10
2023,04,27,04,49,5.10
2023,04,27,04,50,5.10
2023,04,27,04,51,5.00
2023,04,27,04,52,5.00
2023,04,27,04,53,5.00
2023,04,27,04,54,5.00
2023,04,27,04,55,5.00
2023,04,27,04,56,5.00
2023,04,27,04,57,4.90
2023,04,27,04,58,4.90
2023,04,27,04,59,4.90
2023,04,27,05,00,4.90
2023,04,27,05,01,4.90
2023,04,27,05,02,4.90
2023,04,27,05,03,4.90
2023,04,27,05,04,4.80
2023,04,27,05,05,4.80
2023,04,27,05,06,4.80
2023,04,27,05,07,4.80
2023,04,27,05,08,4.80
2023,04,27,05,09,4.80
2023,04,27,05,10,4.80
2023,04,27,05,11,4.80
2023,04,27,05,12,4.80
2023,04,27,05,13,4.80
2023,04,27,05,14,4.80
2023,04,27,05,15,4.80
2023,04,27,05,16,4.80
2023,04,27,05,17,4.80
2023,04,27,05,18,4.80
2023,04,27,05,19,4.80
2023,04,27,05,20,4.80
2023,04,27,05,21,4.80
2023,04,27,05,22,4.80
2023,04,27,05,23,4.80
2023,04,27,05,24,4.80
2023,04,27,05,25,4.80
2023,04,27,05,26,4.90
2023,04,27,05,27,4.90
2023,04,27,05,28,4.90
2023,04,27,05,29,4.90
2023,04,27,05,30,4.90
2023,04,27,05,31,4.90
2023,04,27,05,32,4.90
2023,04,27,05,33,4.90
2023,04,27,05,34,4.90
2023,04,27,05,35,4.90
2023,04,27,05,36,4.90
2023,04,27,05,37,4.90
2023,04,27,05,38,4.90
2023,04,27,05,39,4.90
2023,04,27,05,40,4.90
2023,04,27,05,41,4.90
2023,04,27,05,42,4.90
2023,04,27,05,43,4.90
2023,04,27,05,44,4.80
2023,04,27,05,45,4.80
2023,04,27,05,46,4.80
2023,04,27,05,47,4.80
2023,04,27,05,48,4.80
2023,04,27,05,49,4.80
2023,04,27,05,50,4.70
2023,04,27,05,51,4.70
2023,04,27,05,52,4.70
2023,04,27,05,53,4.70
2023,04,27,05,54,4.70
2023,04,27,05,55,4.70
2023,04,27,05,56,4.70
2023,04,27,05,57,4.70
2023,04,27,05,58,4.60
2023,04,27,05,59,4.60
2023,04,27,06,00,4.60
2023,04,27,06,01,4.60
2023,04,27,06,02,4.60
2023,04,27,06,03,4.60
2023,04,27,06,04,4.60
2023,04,27,06,05,4.60
2023,04,27,06,06,4.50
2023,04,27,06,07,4.50
2023,04,27,06,08,4.50
2023,04,27,06,09,4.50
2023,04,27,06,10,4.50
2023,04,27,06,11,4.40
2023,04,27,06,12,4.40
2023,04,27,06,13,4.40
2023,04,27,06,14,4.40
2023,04,27,06,15,4.40
2023,04,27,06,16,4.40
2023,04,27,06,17,4.40
2023,04,27,06,18,4.40
2023,04,27,06,19,4.40
2023,04,27,06,20,4.30
2023,04,27,06,21,4.40
2023,04,27,06,22,4.30
2023,04,27,06,23,4.30
2023,04,27,06,24,4.30
2023,04,27,06,25,4.30
2023,04,27,06,26,4.30
2023,04,27,06,27,4.30
2023,04,27,06,28,4.30
2023,04,27,06,29,4.30
2023,04,27,06,30,4.30
2023,04,27,06,31,4.30
2023,04,27,06,32,4.30
2023,04,27,06,33,4.30
2023,04,27,06,34,4.30
2023,04,27,06,35,4.30
2023,04,27,06,36,4.30
2023,04,27,06,37,4.30
2023,04,27,06,38,4.30
2023,04,27,06,39,4.40
2023,04,27,06,40,4.30
2023,04,27,06,41,4.30
2023,04,27,06,42,4.40
2023,04,27,06,43,4.40
2023,04,27,06,44,4.40
2023,04,27,06,45,4.40
2023,04,27,06,46,4.40
2023,04,27,06,47,4.50
2023,04,27,06,48,4.50
2023,04,27,06,49,4.50
2023,04,27,06,50,4.60
2023,04,27,06,51,4.60
2023,04,27,06,52,4.60
2023,04,27,06,53,4.60
2023,04,27,06,54,4.70
2023,04,27,06,55,4.70
2023,04,27,06,56,4.70
2023,04,27,06,57,4.70
2023,04,27,06,58,4.80
2023,04,27,06,59,4.80
2023,04,27,07,00,4.80
2023,04,27,07,01,4.80
2023,04,27,07,02,4.90
2023,04,27,07,03,4.90
2023,04,27,07,04,4.90
2023,04,27,07,05,5.00
2023,04,27,07,06,5.00
2023,04,27,07,07,5.00
2023,04,27,07,08,5.10
2023,04,27,07,09,5.10
2023,04,27,07,10,5.10
2023,04,27,07,11,5.20
2023,04,27,07,12,5.20
2023,04,27,07,13,5.30
2023,04,27,07,14,5.40
2023,04,27,07,15,5.40
2023,04,27,07,16,5.50
2023,04,27,07,17,5.60
2023,04,27,07,18,5.70
2023,04,27,07,19,5.80
2023,04,27,07,20,5.90
2023,04,27,07,21,5.90
2023,04,27,07,22,6.00
2023,04,27,07,23,6.10
2023,04,27,07,24,6.10
2023,04,27,07,25,6.20
2023,04,27,07,26,6.30
2023,04,27,07,27,6.40
2023,04,27,07,28,6.40
2023,04,27,07,29,6.60
2023,04,27,07,30,6.70
2023,04,27,07,31,6.80
2023,04,27,07,32,6.80
2023,04,27,07,33,6.90
2023,04,27,07,34,7.00
2023,04,27,07,35,7.00
2023,04,27,07,36,7.10
2023,04,27,07,37,7.10
2023,04,27,07,38,7.20
2023,04,27,07,39,7.20
2023,04,27,07,40,7.30
2023,04,27,07,41,7.30
2023,04,27,07,42,7.40
2023,04,27,07,43,7.40
2023,04,27,07,44,7.50
2023,04,27,07,45,7.50
2023,04,27,07,46,7.60
2023,04,27,07,47,7.60
2023,04,27,07,48,7.60
2023,04,27,07,49,7.70
2023,04,27,07,50,7.70
2023,04,27,07,51,7.80
2023,04,27,07,52,7.80
2023,04,27,07,53,7.80
2023,04,27,07,54,7.80
2023,04,27,07,55,7.90
2023,04,27,07,56,7.90
2023,04,27,07,57,7.90
2023,04,27,07,58,7.90
2023,04,27,07,59,7.90
2023,04,27,08,00,8.00
2023,04,27,08,01,8.00
2023,04,27,08,02,8.00
2023,04,27,08,03,8.10
2023,04,27,08,04,8.10
2023,04,27,08,05,8.10
2023,04,27,08,06,8.20
2023,04,27,08,07,8.20
2023,04,27,08,08,8.20
2023,04,27,08,09,8.20
2023,04,27,08,10,8.20
2023,04,27,08,11,8.20
2023,04,27,08,12,8.30
2023,04,27,08,13,8.30
2023,04,27,08,14,8.30
2023,04,27,08,15,8.30
2023,04,27,08,16,8.30
2023,04,27,08,17,8.30
2023,04,27,08,18,8.30
2023,04,27,08,19,8.30
2023,04,27,08,20,8.30
2023,04,27,08,21,8.30
2023,04,27,08,22,8.40
2023,04,27,08,23,8.40
2023,04,27,08,24,8.40
2023,04,27,08,25,8.40
2023,04,27,08,26,8.40
2023,04,27,08,27,8.40
2023,04,27,08,28,8.50
2023,04,27,08,29,8.50
2023,04,27,08,30,8.50
2023,04,27,08,31,8.60
2023,04,27,08,32,8.60
2023,04,27,08,33,8.60
2023,04,27,08,34,8.60
2023,04,27,08,35,8.60
2023,04,27,08,36,8.70
2023,04,27,08,37,8.70
2023,04,27,08,38,8.70
2023,04,27,08,39,8.80
2023,04,27,08,40,8.80
2023,04,27,08,41,8.80
2023,04,27,08,42,8.90
2023,04,27,08,43,8.90
2023,04,27,08,44,9.00
2023,04,27,08,45,9.10
2023,04,27,08,46,9.10
2023,04,27,08,47,9.20
2023,04,27,08,48,9.20
2023,04,27,08,49,9.20
2023,04,27,08,50,9.20
2023,04,27,08,51,9.30
2023,04,27,08,52,9.30
2023,04,27,08,53,9.30
2023,04,27,08,54,9.40
2023,04,27,08,55,9.40
2023,04,27,08,56,9.40
2023,04,27,08,57,9.40
2023,04,27,08,58,9.50
2023,04,27,08,59,9.50
2023,04,27,09,00,9.60
2023,04,27,09,01,9.60
2023,04,27,09,02,9.60
2023,04,27,09,03,9.70
2023,04,27,09,04,9.70
2023,04,27,09,05,9.80
2023,04,27,09,06,9.80
2023,04,27,09,07,9.90
2023,04,27,09,08,9.90
2023,04,27,09,09,9.90
2023,04,27,09,10,10.00
2023,04,27,09,11,10.10
2023,04,27,09,12,10.10
2023,04,27,09,13,10.10
2023,04,27,09,14,10.20
2023,04,27,09,15,10.20
2023,04,27,09,16,10.30
2023,04,27,09,17,10.40
2023,04,27,09,18,10.50
2023,04,27,09,19,10.50
2023,04,27,09,20,10.60
2023,04,27,09,21,10.60
2023,04,27,09,22,10.70
2023,04,27,09,23,10.70
2023,04,27,09,24,10.70
2023,04,27,09,25,10.80
2023,04,27,09,26,10.80
2023,04,27,09,27,10.80
2023,04,27,09,28,10.80
2023,04,27,09,29,10.90
2023,04,27,09,30,10.90
2023,04,27,09,31,10.90
2023,04,27,09,32,11.00
2023,04,27,09,33,11.00
2023,04,27,09,34,11.00
2023,04,27,09,35,11.00
2023,04,27,09,36,11.00
2023,04,27,09,37,11.00
2023,04,27,09,38,11.10
2023,04,27,09,39,11.10
2023,04,27,09,40,11.10
2023,04,27,09,41,11.10
2023,04,27,09,42,11.10
2023,04,27,09,43,11.20
2023,04,27,09,44,11.20
2023,04,27,09,45,11.20
2023,04,27,09,46,11.30
2023,04,27,09,47,11.20
2023,04,27,09,48,11.20
2023,04,27,09,49,11.20
2023,04,27,09,50,11.30
2023,04,27,09,51,11.20
2023,04,27,09,52,11.20
2023,04,27,09,53,11.20
2023,04,27,09,54,11.20
2023,04,27,09,55,11.20
2023,04,27,09,56,11.30
2023,04,27,09,57,11.30
2023,04,27,09,58,11.30
2023,04,27,09,59,11.30
2023,04,27,10,00,11.40
2023,04,27,10,01,11.40
2023,04,27,10,02,11.40
2023,04,27,10,03,11.50
2023,04,27,10,04,11.50
2023,04,27,10,05,11.50
2023,04,27,10,06,11.60
2023,04,27,10,07,11.60
2023,04,27,10,08,11.60
2023,04,27,10,09,11.60
2023,04,27,10,10,11.60
2023,04,27,10,11,11.60
2023,04,27,10,12,11.70
2023,04,27,10,13,11.70
2023,04,27,10,14,11.80
2023,04,27,10,15,11.80
2023,04,27,10,16,11.90
2023,04,27,10,17,11.90
2023,04,27,10,18,12.00
2023,04,27,10,19,12.10
2023,04,27,10,20,12.10
2023,04,27,10,21,12.20
2023,04,27,10,22,12.20
2023,04,27,10,23,12.30
2023,04,27,10,24,12.30
2023,04,27,10,25,12.40
2023,04,27,10,26,12.40
2023,04,27,10,27,12.50
2023,04,27,10,28,12.50
2023,04,27,10,29,12.60
2023,04,27,10,30,12.60
2023,04,27,10,31,12.70
2023,04,27,10,32,12.70
2023,04,27,10,33,12.70
2023,04,27,10,34,12.80
2023,04,27,10,35,12.80
2023,04,27,10,36,12.80
2023,04,27,10,37,12.80
2023,04,27,10,38,12.80
2023,04,27,10,39,12.90
2023,04,27,10,40,12.90
2023,04,27,10,41,12.90
2023,04,27,10,42,12.90
2023,04,27,10,43,12.90
2023,04,27,10,44,12.90
2023,04,27,10,45,12.90
2023,04,27,10,46,12.90
2023,04,27,10,47,12.80
2023,04,27,10,48,12.80
2023,04,27,10,49,12.90
2023,04,27,10,50,12.90
2023,04,27,10,51,12.90
2023,04,27,10,52,12.80
2023,04,27,10,53,12.80
2023,04,27,10,54,12.80
2023,04,27,10,55,12.80
2023,04,27,10,56,12.70
2023,04,27,10,57,12.60
2023,04,27,10,58,12.60
2023,04,27,10,59,12.60
2023,04,27,11,00,12.60
2023,04,27,11,01,12.50
2023,04,27,11,02,12.50
2023,04,27,11,03,12.50
2023,04,27,11,04,12.50
2023,04,27,11,05,12.50
2023,04,27,11,06,12.50
2023,04,27,11,07,12.60
2023,04,27,11,08,12.50
2023,04,27,11,09,12.50
2023,04,27,11,10,12.50
2023,04,27,11,11,12.60
2023,04,27,11,12,12.60
2023,04,27,11,13,12.70
2023,04,27,11,14,12.80
2023,04,27,11,15,12.90
2023,04,27,11,16,13.00
2023,04,27,11,17,13.00
2023,04,27,11,18,13.10
2023,04,27,11,19,13.20
2023,04,27,11,20,13.20
2023,04,27,11,21,13.30
2023,04,27,11,22,13.30
2023,04,27,11,23,13.30
2023,04,27,11,24,13.30
2023,04,27,11,25,13.20
2023,04,27,11,26,13.20
2023,04,27,11,27,13.20
2023,04,27,11,28,13.20
2023,04,27,11,29,13.20
2023,04,27,11,30,13.30
2023,04,27,11,31,13.30
2023,04,27,11,32,13.40
2023,04,27,11,33,13.50
2023,04,27,11,34,13.50
2023,04,27,11,35,13.60
2023,04,27,11,36,13.70
2023,04,27,11,37,13.70
2023,04,27,11,38,13.80
2023,04,27,11,39,13.90
2023,04,27,11,40,13.90
2023,04,27,11,41,13.90
2023,04,27,11,42,14.00
2023,04,27,11,43,14.00
2023,04,27,11,44,14.00
2023,04,27,11,45,14.00
2023,04,27,11,46,14.00
2023,04,27,11,47,14.10
2023,04,27,11,48,14.20
2023,04,27,11,49,14.20
2023,04,27,11,50,14.30
2023,04,27,11,51,14.30
2023,04,27,11,52,14.30
2023,04,27,11,53,14.30
2023,04,27,11,54,14.30
2023,04,27,11,55,14.30
2023,04,27,11,56,14.40
2023,04,27,11,57,14.40
2023,04,27,11,58,14.40
2023,04,27,11,59,14.40
2023,04,27,12,00,14.40
2023,04,27,12,01,14.40
2023,04,27,12,02,14.40
2023,04,27,12,03,14.40
2023,04,27,12,04,14.50
2023,04,27,12,05,14.50
2023,04,27,12,06,14.50
2023,04,27,12,07,14.60
2023,04,27,12,08,14.60
2023,04,27,12,09,14.60
2023,04,27,12,10,14.70
2023,04,27,12,11,14.70
2023,04,27,12,12,14.60
2023,04,27,12,13,14.60
2023,04,27,12,14,14.60
2023,04,27,12,15,14.60
2023,04,27,12,16,14.70
2023,04,27,12,17,14.70
2023,04,27,12,18,14.70
2023,04,27,12,19,14.80
2023,04,27,12,20,14.80
2023,04,27,12,21,14.90
2023,04,27,12,22,15.00
2023,04,27,12,23,15.00
2023,04,27,12,24,15.00
2023,04,27,12,25,15.10
2023,04,27,12,26,15.10
2023,04,27,12,27,15.20
2023,04,27,12,28,15.20
2023,04,27,12,29,15.20
2023,04,27,12,30,15.20
2023,04,27,12,31,15.20
2023,04,27,12,32,15.20
2023,04,27,12,33,15.20
2023,04,27,12,34,15.10
2023,04,27,12,35,15.10
2023,04,27,12,36,15.10
2023,04,27,12,37,15.10
2023,04,27,12,38,15.10
2023,04,27,12,39,15.10
2023,04,27,12,40,15.10
2023,04,27,12,41,15.10
2023,04,27,12,42,15.20
2023,04,27,12,43,15.20
2023,04,27,12,44,15.30
2023,04,27,12,45,15.30
2023,04,27,12,46,15.40
2023,04,27,12,47,15.40
2023,04,27,12,48,15.50
2023,04,27,12,49,15.60
2023,04,27,12,50,15.60
2023,04,27,12,51,15.60
2023,04,27,12,52,15.60
2023,04,27,12,53,15.60
2023,04,27,12,54,15.60
2023,04,27,12,55,15.60
2023,04,27,12,56,15.60
2023,04,27,12,57,15.60
2023,04,27,12,58,15.60
2023,04,27,12,59,15.60
2023,04,27,13,00,15.60
2023,04,27,13,01,15.60
2023,04,27,13,02,15.50
2023,04,27,13,03,15.40
2023,04,27,13,04,15.40
2023,04,27,13,05,15.30
2023,04,27,13,06,15.30
2023,04,27,13,07,15.30
2023,04,27,13,08,15.30
2023,04,27,13,09,15.30
2023,04,27,13,10,15.30
2023,04,27,13,11,15.30
2023,04,27,13,12,15.30
2023,04,27,13,13,15.30
2023,04,27,13,14,15.40
2023,04,27,13,15,15.40
2023,04,27,13,16,15.50
2023,04,27,13,17,15.40
2023,04,27,13,18,15.40
2023,04,27,13,19,15.40
2023,04,27,13,20,15.50
2023,04,27,13,21,15.50
2023,04,27,13,22,15.60
2023,04,27,13,23,15.60
2023,04,27,13,24,15.70
2023,04,27,13,25,15.80
2023,04,27,13,26,15.80
2023,04,27,13,27,15.80
2023,04,27,13,28,15.80
2023,04,27,13,29,15.80
2023,04,27,13,30,15.80
2023,04,27,13,31,15.90
2023,04,27,13,32,15.90
2023,04,27,13,33,16.00
2023,04,27,13,34,16.00
2023,04,27,13,35,16.10
2023,04,27,13,36,16.10
2023,04,27,13,37,16.20
2023,04,27,13,38,16.20
2023,04,27,13,39,16.10
2023,04,27,13,40,16.10
2023,04,27,13,41,16.10
2023,04,27,13,42,16.10
2023,04,27,13,43,16.10
2023,04,27,13,44,16.10
2023,04,27,13,45,16.20
2023,04,27,13,46,16.20
2023,04,27,13,47,16.20
2023,04,27,13,48,16.20
2023,04,27,13,49,16.20
2023,04,27,13,50,16.20
2023,04,27,13,51,16.20
2023,04,27,13,52,16.20
2023,04,27,13,53,16.20
2023,04,27,13,54,16.20
2023,04,27,13,55,16.20
2023,04,27,13,56,16.30
2023,04,27,13,57,16.30
2023,04,27,13,58,16.30
2023,04,27,13,59,16.30
2023,04,27,14,00,16.40
2023,04,27,14,01,16.40
2023,04,27,14,02,16.40
2023,04,27,14,03,16.40
2023,04,27,14,04,16.50
2023,04,27,14,05,16.40
2023,04,27,14,06,16.40
2023,04,27,14,07,16.40
2023,04,27,14,08,16.40
2023,04,27,14,09,16.50
2023,04,27,14,10,16.40
2023,04,27,14,11,16.40
2023,04,27,14,12,16.40
2023,04,27,14,13,16.40
2023,04,27,14,14,16.40
2023,04,27,14,15,16.40
2023,04,27,14,16,16.40
2023,04,27,14,17,16.50
2023,04,27,14,18,16.50
2023,04,27,14,19,16.60
2023,04,27,14,20,16.60
2023,04,27,14,21,16.70
2023,04,27,14,22,16.70
2023,04,27,14,23,16.70
2023,04,27,14,24,16.70
2023,04,27,14,25,16.80
2023,04,27,14,26,16.80
2023,04,27,14,27,16.80
2023,04,27,14,28,16.80
2023,04,27,14,29,16.90
2023,04,27,14,30,16.90
2023,04,27,14,31,16.90
2023,04,27,14,32,16.90
2023,04,27,14,33,17.00
2023,04,27,14,34,17.00
2023,04,27,14,35,17.10
2023,04,27,14,36,17.10
2023,04,27,14,37,17.20
2023,04,27,14,38,17.20
2023,04,27,14,39,17.10
2023,04,27,14,40,17.10
2023,04,27,14,41,17.00
2023,04,27,14,42,17.00
2023,04,27,14,43,16.90
2023,04,27,14,44,16.90
2023,04,27,14,45,16.90
2023,04,27,14,46,16.90
2023,04,27,14,47,16.90
2023,04,27,14,48,16.80
2023,04,27,14,49,16.80
2023,04,27,14,50,16.70
2023,04,27,14,51,16.70
2023,04,27,14,52,16.70
2023,04,27,14,53,16.70
2023,04,27,14,54,16.70
2023,04,27,14,55,16.70
2023,04,27,14,56,16.70
2023,04,27,14,57,16.80
2023,04,27,14,58,16.80
2023,04,27,14,59,16.90
2023,04,27,15,00,16.90
2023,04,27,15,01,16.90
2023,04,27,15,02,17.00
2023,04,27,15,03,17.00
2023,04,27,15,04,17.10
2023,04,27,15,05,17.10
2023,04,27,15,06,17.10
2023,04,27,15,07,17.10
2023,04,27,15,08,17.00
2023,04,27,15,09,17.00
2023,04,27,15,10,17.00
2023,04,27,15,11,16.90
2023,04,27,15,12,16.90
2023,04,27,15,13,16.90
2023,04,27,15,14,17.00
2023,04,27,15,15,17.10
2023,04,27,15,16,17.10
2023,04,27,15,17,17.20
2023,04,27,15,18,17.30
2023,04,27,15,19,17.30
2023,04,27,15,20,17.20
2023,04,27,15,21,17.20
2023,04,27,15,22,17.20
2023,04,27,15,23,17.20
2023,04,27,15,24,17.10
2023,04,27,15,25,17.10
2023,04,27,15,26,17.10
2023,04,27,15,27,17.20
2023,04,27,15,28,17.20
2023,04,27,15,29,17.30
2023,04,27,15,30,17.30
2023,04,27,15,31,17.40
2023,04,27,15,32,17.40
2023,04,27,15,33,17.50
2023,04,27,15,34,17.60
2023,04,27,15,35,17.60
2023,04,27,15,36,17.70
2023,04,27,15,37,17.70
2023,04,27,15,38,17.80
2023,04,27,15,39,17.80
2023,04,27,15,40,17.80
2023,04,27,15,41,17.90
2023,04,27,15,42,17.90
2023,04,27,15,43,17.80
2023,04,27,15,44,17.80
2023,04,27,15,45,17.70
2023,04,27,15,46,17.60
2023,04,27,15,47,17.60
2023,04,27,15,48,17.60
2023,04,27,15,49,17.60
2023,04,27,15,50,17.60
2023,04,27,15,51,17.50
2023,04,27,15,52,17.50
2023,04,27,15,53,17.50
2023,04,27,15,54,17.40
2023,04,27,15,55,17.40
2023,04,27,15,56,17.40
2023,04,27,15,57,17.40
2023,04,27,15,58,17.50
2023,04,27,15,59,17.50
2023,04,27,16,00,17.50
2023,04,27,16,01,17.50
2023,04,27,16,02,17.50
2023,04,27,16,03,17.60
2023,04,27,16,04,17.60
2023,04,27,16,05,17.60
2023,04,27,16,06,17.60
2023,04,27,16,07,17.60
2023,04,27,16,08,17.60
2023,04,27,16,09,17.60
2023,04,27,16,10,17.70
2023,04,27,16,11,17.70
2023,04,27,16,12,17.70
2023,04,27,16,13,17.70
2023,04,27,16,14,17.70
2023,04,27,16,15,17.70
2023,04,27,16,16,17.70
2023,04,27,16,17,17.70
2023,04,27,16,18,17.70
2023,04,27,16,19,17.60
2023,04,27,16,20,17.60
2023,04,27,16,21,17.50
2023,04,27,16,22,17.50
2023,04,27,16,23,17.50
2023,04,27,16,24,17.50
2023,04,27,16,25,17.50
2023,04,27,16,26,17.40
2023,04,27,16,27,17.40
2023,04,27,16,28,17.40
2023,04,27,16,29,17.40
2023,04,27,16,30,17.40
2023,04,27,16,31,17.40
2023,04,27,16,32,17.40
2023,04,27,16,33,17.40
2023,04,27,16,34,17.40
2023,04,27,16,35,17.40
2023,04,27,16,36,17.40
2023,04,27,16,37,17.40
2023,04,27,16,38,17.50
2023,04,27,16,39,17.60
2023,04,27,16,40,17.60
2023,04,27,16,41,17.70
2023,04,27,16,42,17.70
2023,04,27,16,43,17.80
2023,04,27,16,44,17.70
2023,04,27,16,45,17.70
2023,04,27,16,46,17.70
2023,04,27,16,47,17.70
2023,04,27,16,48,17.70
2023,04,27,16,49,17.70
2023,04,27,16,50,17.70
2023,04,27,16,51,17.70
2023,04,27,16,52,17.80
2023,04,27,16,53,17.80
2023,04,27,16,54,17.80
2023,04,27,16,55,17.80
2023,04,27,16,56,17.80
2023,04,27,16,57,17.90
2023,04,27,16,58,17.90
2023,04,27,16,59,18.00
2023,04,27,17,00,18.00
2023,04,27,17,01,18.00
2023,04,27,17,02,18.00
2023,04,27,17,03,18.00
2023,04,27,17,04,18.10
2023,04,27,17,05,18.10
2023,04,27,17,06,18.10
2023,04,27,17,07,18.20
2023,04,27,17,08,18.20
2023,04,27,17,09,18.20
2023,04,27,17,10,18.10
2023,04,27,17,11,18.10
2023,04,27,17,12,17.90
2023,04,27,17,13,17.90
2023,04,27,17,14,17.80
2023,04,27,17,15,17.80
2023,04,27,17,16,17.70
2023,04,27,17,17,17.70
2023,04,27,17,18,17.60
2023,04,27,17,19,17.60
2023,04,27,17,20,17.60
2023,04,27,17,21,17.60
2023,04,27,17,22,17.60
2023,04,27,17,23,17.60
2023,04,27,17,24,17.50
2023,04,27,17,25,17.50
2023,04,27,17,26,17.40
2023,04,27,17,27,17.40
2023,04,27,17,28,17.30
2023,04,27,17,29,17.30
2023,04,27,17,30,17.30
2023,04,27,17,31,17.30
2023,04,27,17,32,17.20
2023,04,27,17,33,17.20
2023,04,27,17,34,17.20
2023,04,27,17,35,17.20
2023,04,27,17,36,17.20
2023,04,27,17,37,17.20
2023,04,27,17,38,17.20
2023,04,27,17,39,17.20
2023,04,27,17,40,17.20
2023,04,27,17,41,17.20
2023,04,27,17,42,17.10
2023,04,27,17,43,17.10